Tracking 19796 objects as of 19-Jul-2019
HD Live streaming from Space Station
objects crossing your sky now

SL-12 R/B(AUX MOTOR)

Track SL-12 R/B(AUX MOTOR) now!
10-day predictions


NORAD ID: 18374
Int'l Code: 1987-079G
Perigee: 593.9 km
Apogee: 18,425.4 km
Inclination: 65.2 °
Period: 331.9 minutes
Semi major axis: 15880 km
RCS: 0.6049 m2 (medium)
Launch date: September 16, 1987
Source: Commonwealth of Independent States (former USSR) (CIS)
Launch site: TYURATAM MISSILE AND SPACE COMPLEX (TTMTR)

Note: This is a ROCKET BODY
aabbcc
Your satellite tracking list
Your tracking list is empty




NASA's NSSDC Master Catalog

Two Line Element Set (TLE):
1 18374U 87079G   19199.10221759  .00000123  00000-0  38562-3 0  9993
2 18374  65.1853 132.2612 5614229 121.4638 305.4003  4.33810209495838
Source of the keplerian elements: AFSPC